This is the latest recevied weather packets stored in our database for station/object W8KVG. If no packets are shown the sender has not sent any weather packets the latest 10 day(s).
| Time | Temp. | Humidity | Pressure | Rain* | Wind** | Luminosity | Snow |
|---|---|---|---|---|---|---|---|
| 1777925432 | 23.33° C | 47% | 1006.1 hPa | 0 mm | - | 776 W/m² | - |
| 1777925127 | 22.78° C | 48% | 1006.2 hPa | 0 mm | - | 833 W/m² | - |
| 1777924825 | 23.33° C | 48% | 1006.4 hPa | 0 mm | - | 187 W/m² | - |
| 1777924521 | 24.44° C | 46% | 1006.3 hPa | 0 mm | - | 111 W/m² | - |
| 1777924217 | 23.89° C | 47% | 1006.3 hPa | 0 mm | - | 791 W/m² | - |
| 1777923914 | 22.78° C | 46% | 1006.3 hPa | 0 mm | - | 847 W/m² | - |
| 1777923609 | 23.33° C | 46% | 1006.2 hPa | 0 mm | - | 176 W/m² | - |
| 1777923307 | 23.89° C | 44% | 1006.3 hPa | 0 mm | - | 225 W/m² | - |
| 1777923005 | 23.33° C | 45% | 1006.4 hPa | 0 mm | - | 790 W/m² | - |
| 1777922703 | 22.78° C | 49% | 1006.5 hPa | 0 mm | - | 812 W/m² | - |
| 1777922401 | 21.67° C | 49% | 1006.6 hPa | 0 mm | - | 899 W/m² | - |
| 1777922099 | 22.22° C | 49% | 1006.8 hPa | 0 mm | - | 897 W/m² | - |
| 1777921794 | 21.67° C | 50% | 1006.6 hPa | 0 mm | - | 175 W/m² | - |
| 1777921490 | 21.67° C | 50% | 1006.8 hPa | 0 mm | - | 726 W/m² | - |
| 1777921187 | 22.78° C | 48% | 1006.9 hPa | 0 mm | - | 428 W/m² | - |
| 1777920884 | 22.22° C | 49% | 1006.9 hPa | 0 mm | - | 877 W/m² | - |
| 1777920579 | 22.22° C | 48% | 1007 hPa | 0 mm | - | 716 W/m² | - |
| 1777920276 | 22.22° C | 47% | 1007 hPa | 0 mm | - | 526 W/m² | - |
| 1777919971 | 22.22° C | 49% | 1007.3 hPa | 0 mm | - | 870 W/m² | - |
| 1777919669 | 22.22° C | 47% | 1007.2 hPa | 0 mm | - | 480 W/m² | - |
| 1777919367 | 22.78° C | 47% | 1007.2 hPa | 0 mm | - | 872 W/m² | - |
| 1777919063 | 22.78° C | 49% | 1007.3 hPa | 0 mm | - | 869 W/m² | - |
| 1777918761 | 22.22° C | 48% | 1007.3 hPa | 0 mm | - | 876 W/m² | - |
| 1777918458 | 22.22° C | 50% | 1007.3 hPa | 0 mm | - | 856 W/m² | - |
| 1777918156 | 22.78° C | 49% | 1007.3 hPa | 0 mm | - | 863 W/m² | - |
* Rain latest hour (hover to see other rain measurements)
** Current wind speed in m/s (hover to see current wind gust speed)